Time,TemperatureF,DewpointF,PressureIn,WindDirection,WindDirectionDegrees,WindSpeedMPH,WindSpeedGustMPH,Humidity,HourlyPrecipIn,Conditions,Clouds,dailyrainin,SoftwareType,DateUTC
2013-02-05 00:02:00,34.0,21.6,29.93,SSW,202,1.0,2.0,60,0.00,,,0.01,meteohub,2013-02-05 05:02:00,
2013-02-05 00:12:00,34.0,21.2,29.94,SSW,202,2.0,2.0,59,0.00,,,0.00,meteohub,2013-02-05 05:12:00,
2013-02-05 00:22:00,34.0,21.2,29.93,SSW,202,1.0,2.0,59,0.00,,,0.00,meteohub,2013-02-05 05:22:00,
2013-02-05 00:32:00,34.0,21.6,29.93,SSW,202,1.0,2.0,60,0.00,,,0.00,meteohub,2013-02-05 05:32:00,
2013-02-05 00:42:00,34.0,21.6,29.92,SE,135,0.0,2.0,60,0.00,,,0.00,meteohub,2013-02-05 05:42:00,
2013-02-05 00:52:00,34.0,21.2,29.92,SSE,157,0.0,2.0,59,0.00,,,0.00,meteohub,2013-02-05 05:52:00,
2013-02-05 01:02:00,34.0,21.6,29.92,South,180,2.0,2.0,60,0.00,,,0.00,meteohub,2013-02-05 06:02:00,
2013-02-05 01:12:00,34.0,21.9,29.92,South,180,0.0,2.0,61,0.00,,,0.00,meteohub,2013-02-05 06:12:00,
2013-02-05 01:22:00,33.1,21.6,29.92,South,180,0.0,1.0,62,0.00,,,0.00,meteohub,2013-02-05 06:22:00,
2013-02-05 01:32:00,33.1,21.6,29.91,South,180,1.0,2.0,62,0.00,,,0.00,meteohub,2013-02-05 06:32:00,
2013-02-05 01:42:00,33.1,21.9,29.91,South,180,0.0,2.0,63,0.00,,,0.00,meteohub,2013-02-05 06:42:00,
2013-02-05 01:52:00,32.0,21.2,29.91,South,180,0.0,0.0,64,0.00,,,0.00,meteohub,2013-02-05 06:52:00,
2013-02-05 02:02:00,32.0,22.3,29.91,South,180,0.0,0.0,67,0.00,,,0.00,meteohub,2013-02-05 07:02:00,
2013-02-05 02:12:00,32.0,22.3,29.91,South,180,0.0,0.0,67,0.00,,,0.00,meteohub,2013-02-05 07:12:00,
2013-02-05 02:22:00,33.1,23.0,29.91,South,180,0.0,0.0,66,0.00,,,0.00,meteohub,2013-02-05 07:22:00,
2013-02-05 02:32:00,33.1,23.0,29.90,SE,135,1.0,0.0,66,0.00,,,0.00,meteohub,2013-02-05 07:32:00,
2013-02-05 02:52:00,32.0,23.0,29.90,SE,135,0.0,1.0,69,0.00,,,0.00,meteohub,2013-02-05 07:52:00,
2013-02-05 03:02:00,30.9,22.3,29.89,SE,135,0.0,0.0,70,0.00,,,0.00,meteohub,2013-02-05 08:02:00,
2013-02-05 03:12:00,30.9,22.3,29.89,SE,135,1.0,2.0,70,0.00,,,0.00,meteohub,2013-02-05 08:12:00,
2013-02-05 03:22:00,30.9,22.3,29.89,SE,135,0.0,2.0,70,0.00,,,0.00,meteohub,2013-02-05 08:22:00,
2013-02-05 03:32:00,30.9,21.9,29.89,SE,135,0.0,1.0,69,0.00,,,0.00,meteohub,2013-02-05 08:32:00,
2013-02-05 03:42:00,30.9,22.3,29.89,SE,135,0.0,0.0,70,0.00,,,0.00,meteohub,2013-02-05 08:42:00,
2013-02-05 03:52:00,30.9,22.6,29.89,SE,135,0.0,0.0,71,0.00,,,0.00,meteohub,2013-02-05 08:52:00,
2013-02-05 04:02:00,30.9,22.6,29.88,SE,135,0.0,2.0,71,0.00,,,0.00,meteohub,2013-02-05 09:02:00,
2013-02-05 04:12:00,30.9,22.6,29.88,SE,135,0.0,2.0,71,0.00,,,0.00,meteohub,2013-02-05 09:12:00,
2013-02-05 04:22:00,30.9,23.0,29.89,SE,135,0.0,0.0,72,0.00,,,0.00,meteohub,2013-02-05 09:22:00,
2013-02-05 04:32:00,30.9,23.0,29.88,SE,135,0.0,0.0,72,0.00,,,0.00,meteohub,2013-02-05 09:32:00,
2013-02-05 04:42:00,30.9,23.4,29.88,SE,135,0.0,0.0,73,0.00,,,0.00,meteohub,2013-02-05 09:42:00,
2013-02-05 04:52:00,30.9,23.0,29.88,SE,135,0.0,0.0,72,0.00,,,0.00,meteohub,2013-02-05 09:52:00,
2013-02-05 05:02:00,30.9,22.6,29.89,SE,135,0.0,0.0,71,0.00,,,0.00,meteohub,2013-02-05 10:02:00,
2013-02-05 05:12:00,32.0,23.4,29.89,SE,135,0.0,0.0,70,0.00,,,0.00,meteohub,2013-02-05 10:12:00,
2013-02-05 05:22:00,33.1,24.4,29.89,SE,135,0.0,2.0,70,0.00,,,0.00,meteohub,2013-02-05 10:22:00,
2013-02-05 05:32:00,33.1,24.4,29.89,SE,135,0.0,2.0,70,0.00,,,0.00,meteohub,2013-02-05 10:32:00,
2013-02-05 05:42:00,33.1,24.4,29.89,SE,135,0.0,0.0,70,0.00,,,0.00,meteohub,2013-02-05 10:42:00,
2013-02-05 05:52:00,33.1,24.1,29.89,East,90,0.0,2.0,69,0.00,,,0.00,meteohub,2013-02-05 10:52:00,
2013-02-05 06:02:00,33.1,25.0,29.90,East,90,0.0,2.0,72,0.00,,,0.00,meteohub,2013-02-05 11:02:00,
2013-02-05 06:12:00,33.1,25.0,29.91,East,90,0.0,0.0,72,0.00,,,0.00,meteohub,2013-02-05 11:12:00,
2013-02-05 06:22:00,33.1,25.7,29.91,East,90,0.0,0.0,74,0.00,,,0.00,meteohub,2013-02-05 11:22:00,
2013-02-05 06:32:00,32.0,24.3,29.91,NE,45,1.0,1.0,73,0.00,,,0.00,meteohub,2013-02-05 11:32:00,
2013-02-05 06:42:00,32.0,24.6,29.91,NE,45,0.0,2.0,74,0.00,,,0.00,meteohub,2013-02-05 11:42:00,
2013-02-05 06:52:00,32.0,24.6,29.92,NE,45,0.0,2.0,74,0.00,,,0.00,meteohub,2013-02-05 11:52:00,
2013-02-05 07:02:00,32.0,25.0,29.92,NE,45,0.0,2.0,75,0.00,,,0.00,meteohub,2013-02-05 12:02:00,
2013-02-05 07:12:00,32.0,25.3,29.92,NE,45,0.0,2.0,76,0.00,,,0.00,meteohub,2013-02-05 12:12:00,
2013-02-05 07:22:00,32.0,25.3,29.92,NE,45,1.0,2.0,76,0.00,,,0.00,meteohub,2013-02-05 12:22:00,
2013-02-05 07:32:00,32.0,25.3,29.93,NE,45,0.0,2.0,76,0.00,,,0.00,meteohub,2013-02-05 12:32:00,
2013-02-05 07:42:00,32.0,25.7,29.93,NE,45,1.0,2.0,77,0.00,,,0.00,meteohub,2013-02-05 12:42:00,
2013-02-05 07:52:00,32.0,25.7,29.94,NE,45,0.0,2.0,77,0.00,,,0.00,meteohub,2013-02-05 12:52:00,
2013-02-05 08:02:00,32.0,25.3,29.93,NE,45,0.0,2.0,76,0.00,,,0.00,meteohub,2013-02-05 13:02:00,
2013-02-05 08:12:00,33.1,25.7,29.93,ESE,112,2.0,0.0,74,0.00,,,0.00,meteohub,2013-02-05 13:12:00,
2013-02-05 08:22:00,34.0,25.9,29.95,ESE,112,2.0,2.0,72,0.00,,,0.00,meteohub,2013-02-05 13:22:00,
2013-02-05 08:32:00,34.0,24.8,29.94,ESE,112,1.0,2.0,69,0.00,,,0.00,meteohub,2013-02-05 13:32:00,
2013-02-05 08:42:00,34.0,25.5,29.95,ESE,112,0.0,2.0,71,0.00,,,0.00,meteohub,2013-02-05 13:42:00,
2013-02-05 08:52:00,34.0,24.6,29.95,ENE,67,0.0,1.0,68,0.00,,,0.00,meteohub,2013-02-05 13:52:00,
2013-02-05 09:02:00,34.0,25.2,29.96,NE,45,1.0,2.0,70,0.00,,,0.00,meteohub,2013-02-05 14:02:00,
2013-02-05 09:12:00,34.0,24.8,29.97,NE,45,2.0,2.0,69,0.00,,,0.00,meteohub,2013-02-05 14:12:00,
2013-02-05 09:22:00,35.1,24.8,29.96,NE,45,2.0,2.0,66,0.00,,,0.00,meteohub,2013-02-05 14:22:00,
2013-02-05 09:32:00,35.1,24.8,29.96,East,90,1.0,3.0,66,0.00,,,0.00,meteohub,2013-02-05 14:32:00,
2013-02-05 09:42:00,36.0,25.3,29.96,NE,45,1.0,2.0,65,0.00,,,0.00,meteohub,2013-02-05 14:42:00,
2013-02-05 09:52:00,36.0,25.0,29.97,NE,45,1.0,2.0,64,0.00,,,0.00,meteohub,2013-02-05 14:52:00,
2013-02-05 10:02:00,36.0,25.3,29.97,NE,45,1.0,2.0,65,0.00,,,0.00,meteohub,2013-02-05 15:02:00,
2013-02-05 10:12:00,36.0,25.3,29.97,NE,45,1.0,2.0,65,0.00,,,0.00,meteohub,2013-02-05 15:12:00,
2013-02-05 10:22:00,36.0,25.3,29.97,North,0,0.0,2.0,65,0.00,,,0.00,meteohub,2013-02-05 15:22:00,
2013-02-05 10:32:00,36.0,25.3,29.97,NE,45,0.0,2.0,65,0.00,,,0.00,meteohub,2013-02-05 15:32:00,
2013-02-05 10:42:00,36.0,25.0,29.97,East,90,1.0,2.0,64,0.00,,,0.00,meteohub,2013-02-05 15:42:00,
2013-02-05 10:52:00,37.0,25.7,29.96,NE,45,2.0,4.0,63,0.00,,,0.00,meteohub,2013-02-05 15:52:00,
2013-02-05 11:02:00,37.0,25.2,29.97,NE,45,1.0,4.0,62,0.00,,,0.00,meteohub,2013-02-05 16:02:00,
2013-02-05 11:12:00,37.0,25.2,29.98,NW,315,0.0,3.0,62,0.00,,,0.00,meteohub,2013-02-05 16:12:00,
2013-02-05 11:22:00,37.0,25.7,29.98,NE,45,2.0,3.0,63,0.00,,,0.00,meteohub,2013-02-05 16:22:00,
2013-02-05 11:32:00,37.0,26.1,29.97,NE,45,1.0,3.0,64,0.00,,,0.00,meteohub,2013-02-05 16:32:00,
2013-02-05 11:42:00,37.9,26.4,29.97,SE,135,0.0,2.0,63,0.00,,,0.00,meteohub,2013-02-05 16:42:00,
2013-02-05 11:52:00,37.9,26.1,29.97,NW,315,0.0,3.0,62,0.00,,,0.00,meteohub,2013-02-05 16:52:00,
2013-02-05 12:02:00,37.9,26.4,29.97,NE,45,1.0,3.0,63,0.00,,,0.00,meteohub,2013-02-05 17:02:00,
2013-02-05 12:12:00,37.9,26.8,29.96,ESE,112,0.0,3.0,64,0.00,,,0.00,meteohub,2013-02-05 17:12:00,
2013-02-05 12:22:00,37.9,26.1,29.95,East,90,3.0,3.0,62,0.00,,,0.00,meteohub,2013-02-05 17:22:00,
2013-02-05 12:32:00,37.9,25.3,29.95,East,90,0.0,3.0,60,0.00,,,0.00,meteohub,2013-02-05 17:32:00,
2013-02-05 12:42:00,39.0,26.2,29.95,SE,135,1.0,2.0,60,0.00,,,0.00,meteohub,2013-02-05 17:42:00,
2013-02-05 12:52:00,39.0,26.2,29.95,East,90,1.0,3.0,60,0.00,,,0.00,meteohub,2013-02-05 17:52:00,
2013-02-05 13:02:00,39.0,26.2,29.94,NE,45,1.0,3.0,60,0.00,,,0.00,meteohub,2013-02-05 18:02:00,
2013-02-05 13:12:00,39.0,26.8,29.93,NE,45,0.0,3.0,61,0.00,,,0.00,meteohub,2013-02-05 18:12:00,
2013-02-05 13:22:00,39.0,26.8,29.92,ESE,112,4.0,4.0,61,0.00,,,0.00,meteohub,2013-02-05 18:22:00,
2013-02-05 13:32:00,39.0,26.8,29.93,East,90,1.0,6.0,61,0.00,,,0.00,meteohub,2013-02-05 18:32:00,
2013-02-05 13:42:00,39.9,28.0,29.92,ESE,112,1.0,3.0,62,0.00,,,0.00,meteohub,2013-02-05 18:42:00,
2013-02-05 13:52:00,39.9,28.0,29.92,East,90,3.0,4.0,62,0.00,,,0.00,meteohub,2013-02-05 18:52:00,
2013-02-05 14:02:00,39.9,28.0,29.92,ESE,112,2.0,4.0,62,0.00,,,0.00,meteohub,2013-02-05 19:02:00,
2013-02-05 14:12:00,39.0,27.1,29.92,East,90,2.0,4.0,62,0.00,,,0.00,meteohub,2013-02-05 19:12:00,
2013-02-05 14:22:00,39.0,27.1,29.92,ESE,112,1.0,3.0,62,0.00,,,0.00,meteohub,2013-02-05 19:22:00,
2013-02-05 14:32:00,39.0,27.1,29.91,North,0,1.0,2.0,62,0.00,,,0.00,meteohub,2013-02-05 19:32:00,
2013-02-05 14:42:00,39.0,27.5,29.91,ESE,112,2.0,4.0,63,0.00,,,0.00,meteohub,2013-02-05 19:42:00,
2013-02-05 14:52:00,39.9,28.0,29.91,ESE,112,0.0,4.0,62,0.00,,,0.00,meteohub,2013-02-05 19:52:00,
2013-02-05 15:02:00,39.9,28.0,29.92,ESE,112,2.0,4.0,62,0.00,,,0.00,meteohub,2013-02-05 20:02:00,
2013-02-05 15:12:00,39.9,28.4,29.92,East,90,2.0,3.0,63,0.00,,,0.00,meteohub,2013-02-05 20:12:00,
2013-02-05 15:22:00,39.9,28.4,29.92,East,90,1.0,3.0,63,0.00,,,0.00,meteohub,2013-02-05 20:22:00,
2013-02-05 15:32:00,39.9,28.4,29.92,NE,45,2.0,3.0,63,0.00,,,0.00,meteohub,2013-02-05 20:32:00,
2013-02-05 15:42:00,39.9,28.4,29.92,NE,45,1.0,2.0,63,0.00,,,0.00,meteohub,2013-02-05 20:42:00,
2013-02-05 15:52:00,39.9,28.8,29.92,NE,45,0.0,4.0,64,0.00,,,0.00,meteohub,2013-02-05 20:52:00,
2013-02-05 16:02:00,39.9,28.4,29.93,North,0,1.0,4.0,63,0.00,,,0.00,meteohub,2013-02-05 21:02:00,
2013-02-05 16:12:00,39.0,27.9,29.92,East,90,0.0,4.0,64,0.00,,,0.00,meteohub,2013-02-05 21:12:00,
2013-02-05 16:22:00,39.0,28.2,29.92,NE,45,2.0,2.0,65,0.00,,,0.00,meteohub,2013-02-05 21:22:00,
2013-02-05 16:32:00,39.0,28.2,29.92,East,90,1.0,4.0,65,0.00,,,0.00,meteohub,2013-02-05 21:32:00,
2013-02-05 16:42:00,39.0,28.2,29.92,East,90,1.0,4.0,65,0.00,,,0.00,meteohub,2013-02-05 21:42:00,
2013-02-05 16:52:00,39.0,28.2,29.92,East,90,1.0,4.0,65,0.00,,,0.00,meteohub,2013-02-05 21:52:00,
2013-02-05 17:02:00,39.0,28.6,29.92,North,0,1.0,2.0,66,0.00,,,0.00,meteohub,2013-02-05 22:02:00,
2013-02-05 17:12:00,39.0,28.6,29.92,NE,45,2.0,2.0,66,0.00,,,0.00,meteohub,2013-02-05 22:12:00,
2013-02-05 17:22:00,37.9,27.7,29.92,NE,45,1.0,2.0,66,0.00,,,0.00,meteohub,2013-02-05 22:22:00,
2013-02-05 17:32:00,37.9,28.0,29.92,NE,45,1.0,2.0,67,0.00,,,0.00,meteohub,2013-02-05 22:32:00,
2013-02-05 17:42:00,37.9,28.4,29.92,NE,45,0.0,2.0,68,0.00,,,0.00,meteohub,2013-02-05 22:42:00,
2013-02-05 17:52:00,37.0,27.5,29.93,NE,45,0.0,2.0,68,0.00,,,0.00,meteohub,2013-02-05 22:52:00,
2013-02-05 18:12:00,37.0,27.9,29.93,NE,45,1.0,2.0,69,0.00,,,0.00,meteohub,2013-02-05 23:12:00,
2013-02-05 18:22:00,37.0,28.2,29.93,East,90,0.0,2.0,70,0.00,,,0.00,meteohub,2013-02-05 23:22:00,
2013-02-05 18:32:00,37.0,28.2,29.93,East,90,0.0,2.0,70,0.00,,,0.00,meteohub,2013-02-05 23:32:00,
2013-02-05 18:42:00,36.0,26.8,29.93,East,90,1.0,2.0,69,0.00,,,0.00,meteohub,2013-02-05 23:42:00,
2013-02-05 18:52:00,36.0,26.8,29.93,East,90,0.0,2.0,69,0.00,,,0.00,meteohub,2013-02-05 23:52:00,
2013-02-05 19:02:00,36.0,27.1,29.93,ENE,67,1.0,2.0,70,0.00,,,0.00,meteohub,2013-02-06 00:02:00,
2013-02-05 19:12:00,36.0,27.1,29.94,East,90,0.0,2.0,70,0.00,,,0.00,meteohub,2013-02-06 00:12:00,
2013-02-05 19:22:00,36.0,27.1,29.93,NE,45,1.0,2.0,70,0.00,,,0.00,meteohub,2013-02-06 00:22:00,
2013-02-05 19:32:00,36.0,27.1,29.93,East,90,1.0,2.0,70,0.00,,,0.00,meteohub,2013-02-06 00:32:00,
2013-02-05 19:42:00,36.0,27.1,29.93,East,90,2.0,2.0,70,0.00,,,0.00,meteohub,2013-02-06 00:42:00,
2013-02-05 19:52:00,36.0,27.1,29.94,East,90,1.0,3.0,70,0.00,,,0.00,meteohub,2013-02-06 00:52:00,
2013-02-05 20:02:00,36.0,27.1,29.94,NE,45,2.0,2.0,70,0.00,,,0.00,meteohub,2013-02-06 01:02:00,
2013-02-05 20:12:00,36.0,27.5,29.93,East,90,2.0,2.0,71,0.00,,,0.00,meteohub,2013-02-06 01:12:00,
2013-02-05 20:22:00,35.1,26.6,29.94,East,90,1.0,2.0,71,0.00,,,0.00,meteohub,2013-02-06 01:22:00,
2013-02-05 20:32:00,35.1,27.0,29.94,East,90,0.0,2.0,72,0.00,,,0.00,meteohub,2013-02-06 01:32:00,
2013-02-05 20:42:00,35.1,27.3,29.94,East,90,2.0,2.0,73,0.00,,,0.00,meteohub,2013-02-06 01:42:00,
2013-02-05 20:52:00,35.1,27.3,29.94,East,90,0.0,2.0,73,0.00,,,0.00,meteohub,2013-02-06 01:52:00,
2013-02-05 21:02:00,35.1,26.6,29.94,East,90,0.0,2.0,71,0.00,,,0.00,meteohub,2013-02-06 02:02:00,
2013-02-05 21:12:00,34.0,25.5,29.94,East,90,0.0,2.0,71,0.00,,,0.00,meteohub,2013-02-06 02:12:00,
2013-02-05 21:22:00,34.0,26.2,29.95,East,90,0.0,2.0,73,0.00,,,0.00,meteohub,2013-02-06 02:22:00,
2013-02-05 21:32:00,34.0,26.6,29.95,East,90,0.0,0.0,74,0.00,,,0.00,meteohub,2013-02-06 02:32:00,
2013-02-05 21:42:00,33.1,26.1,29.95,East,90,0.0,0.0,75,0.00,,,0.00,meteohub,2013-02-06 02:42:00,
2013-02-05 21:52:00,33.1,26.6,29.96,East,90,0.0,0.0,77,0.00,,,0.00,meteohub,2013-02-06 02:52:00,
2013-02-05 22:02:00,33.1,27.0,29.96,East,90,0.0,1.0,78,0.00,,,0.00,meteohub,2013-02-06 03:02:00,
2013-02-05 22:12:00,33.1,27.0,29.96,NNE,22,0.0,2.0,78,0.00,,,0.00,meteohub,2013-02-06 03:12:00,
2013-02-05 22:22:00,33.1,26.6,29.96,NNE,22,0.0,2.0,77,0.00,,,0.00,meteohub,2013-02-06 03:22:00,
2013-02-05 22:32:00,34.0,27.1,29.97,NNE,22,0.0,2.0,76,0.00,,,0.00,meteohub,2013-02-06 03:32:00,
2013-02-05 22:42:00,34.0,26.6,29.97,NNE,22,2.0,2.0,74,0.00,,,0.00,meteohub,2013-02-06 03:42:00,
2013-02-05 22:52:00,34.0,26.6,29.97,NNE,22,1.0,2.0,74,0.00,,,0.00,meteohub,2013-02-06 03:52:00,
2013-02-05 23:02:00,34.0,26.6,29.97,North,0,2.0,2.0,74,0.00,,,0.00,meteohub,2013-02-06 04:02:00,
2013-02-05 23:12:00,34.0,27.0,29.97,North,0,2.0,4.0,75,0.00,,,0.00,meteohub,2013-02-06 04:12:00,
2013-02-05 23:22:00,34.0,27.1,29.97,North,0,1.0,4.0,76,0.00,,,0.00,meteohub,2013-02-06 04:22:00,
2013-02-05 23:32:00,34.0,27.1,29.97,North,0,1.0,4.0,76,0.00,,,0.00,meteohub,2013-02-06 04:32:00,
2013-02-05 23:42:00,34.0,27.1,29.98,North,0,1.0,4.0,76,0.00,,,0.00,meteohub,2013-02-06 04:42:00,
2013-02-05 23:52:00,34.0,27.1,29.98,North,0,1.0,2.0,76,0.00,,,0.00,meteohub,2013-02-06 04:52:00,